Hors Challenge

Le Trail Des Trappistes - Chimay - Bourlers (48.00 km)

dimanche 08 septembre 2019

Vous pouvez trouver Le classement original sur : https://my2.raceresult.com
 
LE TRAIL DES TRAPPISTES - CHIMAY - BOURLERS
DISTANCE : 48.00 km
dimanche 08 septembre 2019
 
Place dos NOM Catégorie Pl/cat temps temps/km Vitesse
01:00:00              
1 2014 TIM VROMAN SH 1 4:12:56 05:16 11.39
2 42 DANIEL ROTTIERS V1 1 4:41:43 05:52 10.22
3 507 THIERRY LELIÈVRE V1 2 4:42:06 05:53 10.21
4 299 NICOLAS NOTERMAN SH 2 4:42:55 05:54 10.18
5 341 TOM KUYSTERMANS V1 3 4:52:41 06:06 9.84
6 162 CLOVIS MALTOT SH 3 4:56:05 06:10 9.73
7 486 THIBAUD VAN HISSENHOVEN SH 4 4:56:32 06:11 9.71
8 34 DAVID HUCHETTE V1 4 4:58:25 06:13 9.65
9 395 VINCENT DE SMETS SH 5 4:58:51 06:14 9.64
10 409 NICOLAS BENOIT SH 6 4:59:55 06:15 9.60
11 220 MICHAEL AENDENHOF SH 7 5:01:40 06:17 9.55
12 2024 NICOLAS REYNTENS SH 8 5:08:08 06:25 9.35
13 2028 JAN JACOBS SH 9 5:11:05 06:29 9.26
14 501 MAXIME MARECHALLE SH 10 5:12:44 06:31 9.21
15 554 XAVIER COLPIN SH 11 5:15:37 06:35 9.12
16 439 FRANK LINTERMANS SH 12 5:16:03 06:35 9.11
17 394 LAURENT CARBONNIER V1 5 5:16:04 06:35 9.11
18 70 YVES VAN HOECK V1 6 5:18:57 06:39 9.03
19 129 ROBERT VAN DEN BOOM V2 1 5:19:16 06:39 9.02
20 479 RUDI DUMOULIN V2 2 5:22:21 06:43 8.93
21 159 VINCENT LOUCHART V1 7 5:26:49 06:49 8.81
22 105 MAXIME DE RAEYMAEKER SH 13 5:28:08 06:50 8.78
23 55 JAN DE WIT SH 14 5:29:47 06:52 8.73
24 160 MARC CARLU V1 8 5:31:00 06:54 8.70
25 33 JOS PLANCKAERT V1 9 5:32:06 06:55 8.67
26 195 MARK VAN WISSE SH 15 5:33:37 06:57 8.63
27 194 GRÉGORY SCHULLER SH 16 5:33:51 06:57 8.63
28 381 WESLEY LETENS SH 17 5:33:52 06:57 8.63
29 240 GEERT NEIRYNCK V1 10 5:36:05 07:00 8.57
30 524 ANTOINE DILLE SH 18 5:41:08 07:06 8.44
31 523 NINA NIELENS SD 1 5:41:09 07:06 8.44
32 178 THOMAS CAUSTROIS V1 11 5:41:53 07:07 8.42
33 419 TIM BOSMANS V1 12 5:43:03 07:09 8.40
34 297 JEROEN POUSEELE SH 19 5:43:08 07:09 8.39
35 287 MATT PEAK SH 20 5:43:10 07:09 8.39
36 2074 MAXIME THOMAS SH 21 5:44:57 07:11 8.35
37 63 SERGE RITZEN V1 13 5:49:33 07:17 8.24
38 3996 ADRIEN GOFI SH 22 5:54:55 07:24 8.11
39 2029 PETER BAEKE V1 14 5:55:00 07:24 8.11
40 106 MICKAEL LEROYER V1 15 5:55:44 07:25 8.10
41 316 KIM VAN DEN BREMPT SH 23 6:03:27 07:34 7.92
42 315 VINCENT DECARNIERE SH 24 6:03:27 07:34 7.92
43 396 DIMITRI DUFOUR SH 25 6:03:43 07:35 7.92
44 170 LUDOVIC SEILLIER SH 26 6:06:41 07:38 7.85
45 107 JEAN-CHARLES BARBET V2 3 6:09:30 07:42 7.79
46 2068 DAVID HOMBERGER SH 27 6:12:26 07:46 7.73
47 2075 PATRICK HUBERT SH 28 6:12:38 07:46 7.73
48 494 GUY MARTIN V2 4 6:13:05 07:46 7.72
49 424 LIEVEN VANDENHOUCKE V2 5 6:13:19 07:47 7.71
50 2058 BASTIEN EUSOP SH 29 6:16:49 07:51 7.64
51 509 JULIEN BAUDRY SH 30 6:18:16 07:53 7.61
52 288 FRANCK HERTAULT V2 6 6:22:47 07:58 7.52
53 2090 MAARTEN HAZEBROEK V1 16 6:28:13 08:05 7.42
54 8 FABRICE CASALINO V1 17 6:30:29 08:08 7.38
55 5 CHRISTOPHE PLIER V1 18 6:30:29 08:08 7.38
56 3997 MEHMET DALATAS V1 19 6:31:51 08:10 7.35
57 2025 SOPHIE DOUMONT SD 2 6:33:33 08:12 7.32
58 345 CHRISTOPHE QUINAUX V1 20 6:39:15 08:19 7.21
59 354 BENJAMIN FAMEREE V1 21 6:45:52 08:27 7.10
60 2084 KRIS STOKMANS SH 31 6:46:33 08:28 7.08
61 123 PASCAL VAN DER VEER V1 22 7:02:39 08:48 6.81
62 100 ANTOINE DIDIER SH 32 7:08:15 08:55 6.73
63 96 SAMUEL BERTIN SH 33 7:11:18 08:59 6.68
64 32 STEEVE DEMOULIN SH 34 7:25:16 09:17 6.47
65 46 DIDIER SALEMBIER SH 35 7:35:46 09:30 6.32
66 227 SIZZO STROH SH 36 7:41:14 09:37 6.24
67 2021 AYSE HANCER A1 1 7:41:15 09:37 6.24
68 21 MELISSA VAN ESSEN SD 3 7:50:26 09:48 6.12
69 213 ANTHONY JOLIE SH 37 7:50:37 09:48 6.12